Location: Champseau
(45.8333°N, 1.7667°E)
Time: 03:48:34
(UTC+00:00)

SL-16 R/B - Pass Details

Date: 18 April 2021
Orbit: 840 x 849 km, 71.0° (Epoch: 10 May)

Event Time Altitude Azimuth Distance (km) Brightness Sun altitude
Rises 22:11:58 0° 330° (NNW) 3,422 6.6 -28.7°
Reaches altitude 10° 22:14:27 10° 327° (NNW) 2,482 5.6 -28.9°
Enters shadow 22:19:44 59° 265° (W) 974 2.5 -29.3°
